Orbital Elements at Epoch 2459200.5 (2020-Dec-17.0) TDB
Reference: JPL 20 (heliocentric ecliptic J2000)
Element | Value | Uncertainty (1-sigma) | Units |
e | .09063874815394478 | 3.1236e-08 | |
a | 2.338910910419862 | 9.1892e-09 | au |
q | 2.126914953455802 | 7.0285e-08 | au |
i | 7.519439655487313 | 5.3464e-06 | deg |
node | 47.084693323828 | 3.6369e-05 | deg |
peri | 221.4261121732315 | 5.2555e-05 | deg |
M | 105.3000624250037 | 3.7591e-05 | deg |
tp | 2458818.340135409791 (2019-Nov-30.84013541) | 0.00013643 | TDB |
period | 1306.528677041004 3.58 | 7.6997e-06 2.108e-08 | d yr |
n | .2755393022182412 | 1.6238e-09 | deg/d |
Q | 2.550906867383921 | 1.0022e-08 | au |
|
| | Orbit Determination Parameters
Additional Information
|